EW4282 Weather Reports


time (UTC)temp
C
wind
direction
speed
KPH
gust
KPH
rain 1hr
cm
rain 24hr
cm
rain mn
cm
humidity
%
barometer
mb
20260906064520 23 103 0.0 0.0 0.00 0.00 0.00 94 1012.0
20260906063008 23 105 0.0 0.0 0.00 0.00 0.00 93 1011.5
20260906061506 23 105 0.0 0.0 0.00 0.00 0.00 93 1011.5
20260906060004 23 105 0.0 0.0 0.00 0.00 0.00 93 1011.5
20260906054502 23 105 0.0 0.0 0.00 0.00 0.00 92 1011.4
20260906053101 23 105 0.0 0.0 0.00 0.00 0.00 92 1011.2
20260906051559 23 105 0.0 0.0 0.00 0.00 0.00 91 1011.2
20260906050112 23 105 0.0 0.0 0.00 0.00 0.00 91 1011.2
20260906044556 23 105 0.0 0.0 0.00 0.00 0.00 91 1011.3
20260906043057 24 105 0.0 0.0 0.00 0.00 0.00 90 1011.5
20260906041555 24 105 0.0 0.0 0.00 0.00 0.00 89 1011.5
20260906040054 24 105 0.0 0.0 0.00 0.00 0.00 89 1011.5
20260906034559 25 105 0.0 0.0 0.00 0.00 0.00 88 1011.5
20260906033053 25 105 0.0 0.0 0.00 0.00 0.00 87 1011.5
20260906031616 25 105 0.0 0.0 0.00 0.00 0.00 86 1011.4
20260906030052 25 105 0.0 0.0 0.00 0.00 0.00 86 1011.3
20260906024556 25 105 0.0 0.0 0.00 0.00 0.00 85 1011.2
20260906023107 26 105 0.0 0.0 0.00 0.00 0.00 85 1011.0
20260906021552 26 105 0.0 0.0 0.00 0.00 0.00 85 1010.7
20260906020056 26 105 0.0 0.0 0.00 0.00 0.00 86 1010.5
20260906014550 26 105 0.0 0.0 0.00 0.00 0.00 86 1010.4
20260906013049 27 105 0.0 1.6 0.00 0.00 0.00 84 1010.2
20260906011553 28 107 0.0 0.0 0.00 0.00 0.00 80 1010.2
20260906010048 28 107 0.0 9.7 0.00 0.00 0.00 75 1010.0
20260906004555 28 60 0.0 9.7 0.00 0.00 0.00 81 1010.0
20260906003051 28 244 0.0 0.0 0.00 0.00 0.00 87 1009.8
20260906001547 28 244 0.0 0.0 0.00 0.00 0.00 86 1010.0
20260906000052 28 211 0.0 0.0 0.00 0.00 0.00 84 1010.1
20260905234545 29 211 0.0 0.0 0.00 0.00 0.00 83 1009.8
20260905233050 30 197 0.0 0.0 0.00 0.00 0.00 82 1009.9
20260905231548 30 197 0.0 0.0 0.00 0.00 0.00 80 1009.9
20260905230044 31 197 0.0 0.0 0.00 0.00 0.00 77 1009.7
20260905224544 31 194 0.0 0.0 0.00 0.00 0.00 74 1009.7
20260905223043 32 244 0.0 6.4 0.00 0.00 0.00 68 1009.7
20260905221558 33 267 0.0 0.0 0.00 0.00 0.00 59 1009.8
20260905220040 34 267 0.0 0.0 0.00 0.00 0.00 59 1009.9
20260905214538 34 267 0.0 0.0 0.00 0.00 0.00 62 1010.1
20260905213038 35 323 0.0 0.0 0.00 0.00 0.00 55 1010.0
20260905211537 36 323 0.0 0.0 0.00 0.00 0.00 50 1010.0
20260905210036 36 196 0.0 3.2 0.00 0.00 0.00 55 1010.1
20260905204538 36 15 1.6 11.3 0.00 0.18 0.00 50 1010.2
20260905203034 36 27 0.0 12.9 0.00 0.18 0.00 50 1010.4
20260905201531 36 51 1.6 12.9 0.00 0.18 0.00 48 1010.6
20260905200031 36 21 0.0 11.3 0.00 0.18 0.00 51 1011.0
20260905194525 35 30 3.2 11.3 0.00 0.18 0.00 53 1011.2
20260905193024 35 15 6.4 14.5 0.00 0.18 0.00 53 1011.3
20260905191521 35 355 1.6 17.7 0.00 0.18 0.00 54 1011.5
20260905190027 35 336 1.6 9.7 0.00 0.18 0.00 57 1011.9
20260905184516 35 5 6.4 12.9 0.00 0.18 0.00 61 1012.1
20260905183016 35 22 9.7 14.5 0.00 0.18 0.00 58 1012.2
20260905181513 34 349 0.0 11.3 0.00 0.18 0.00 63 1012.4
20260905180011 34 24 6.4 16.1 0.00 0.18 0.00 60 1012.6
20260905174506 33 27 4.8 12.9 0.00 0.18 0.00 62 1012.6
20260905173005 33 355 4.8 9.7 0.00 0.18 0.00 62 1012.8
20260905171502 33 76 0.0 1.6 0.00 0.18 0.00 63 1013.0
20260905170105 33 263 0.0 0.0 0.00 0.18 0.00 62 1013.1
20260905164603 33 251 0.0 0.0 0.00 0.18 0.00 67 1013.2
20260905163056 32 220 0.0 0.0 0.00 0.18 0.00 64 1013.5
20260905161554 32 342 0.0 11.3 0.00 0.18 0.00 66 1013.7
20260905160056 32 293 1.6 9.7 0.00 0.18 0.00 68 1013.9
20260905154550 32 355 0.0 0.0 0.00 0.18 0.00 63 1013.9
20260905153041 32 172 0.0 0.0 0.00 0.18 0.00 69 1013.9
20260905151537 32 291 0.0 0.0 0.00 0.18 0.00 69 1014.0
20260905150032 31 15 0.0 0.0 0.00 0.18 0.00 70 1014.0
20260905144530 31 32 0.0 0.0 0.00 0.18 0.00 74 1013.9
20260905143025 30 292 0.0 0.0 0.00 0.18 0.00 77 1014.0
20260905141520 29 297 0.0 0.0 0.00 0.18 0.00 80 1014.1
20260905140020 28 281 0.0 0.0 0.00 0.18 0.00 84 1014.3
20260905134510 26 180 0.0 0.0 0.00 0.18 0.00 94 1014.3
20260905133008 25 180 0.0 0.0 0.00 0.18 0.00 97 1014.3
20260905131502 24 148 0.0 0.0 0.00 0.18 0.00 97 1014.4
20260905130057 23 313 0.0 0.0 0.00 0.18 0.00 97 1014.4
20260905124556 23 9 0.0 0.0 0.00 0.18 0.00 97 1014.5
20260905123048 22 9 0.0 0.0 0.00 0.18 0.00 97 1014.5
20260905121547 21 34 0.0 0.0 0.00 0.18 0.00 97 1014.1
20260905120053 21 34 0.0 0.0 0.00 0.18 0.00 96 1014.0
20260905114546 21 34 0.0 0.0 0.00 0.18 0.00 96 1013.8
20260905113032 21 34 0.0 0.0 0.00 0.18 0.00 96 1013.7
20260905111600 21 34 0.0 0.0 0.00 0.18 0.00 96 1013.5
20260905110029 21 34 0.0 0.0 0.00 0.18 0.00 96 1013.4
20260905104528 21 34 0.0 0.0 0.00 0.18 0.00 96 1013.2
20260905103034 21 34 0.0 0.0 0.00 0.18 0.00 96 1013.1
20260905101528 21 34 0.0 0.0 0.00 0.18 0.00 96 1013.0
20260905100026 21 34 0.0 0.0 0.00 0.18 0.00 96 1012.9
20260905094526 21 34 0.0 0.0 0.00 0.18 0.00 96 1012.8
20260905093024 21 34 0.0 0.0 0.00 0.18 0.00 96 1012.8
20260905091525 21 34 0.0 0.0 0.00 0.18 0.00 96 1012.7
20260905090023 21 34 0.0 0.0 0.00 0.18 0.00 96 1012.7
20260905084522 22 34 0.0 0.0 0.00 0.18 0.00 96 1012.8
20260905083021 22 34 0.0 0.0 0.00 0.18 0.00 96 1012.7
20260905081522 22 34 0.0 0.0 0.00 0.18 0.00 96 1012.6
20260905080028 22 34 0.0 0.0 0.00 0.18 0.00 96 1012.5
20260905074519 22 34 0.0 0.0 0.00 0.18 0.00 96 1012.4
20260905073020 22 34 0.0 0.0 0.00 0.18 0.00 96 1012.4
20260905071516 22 34 0.0 0.0 0.00 0.18 0.00 95 1012.5
20260905070024 22 34 0.0 0.0 0.00 0.18 0.00 96 1012.7